Estación de Lluta Medio

Ultimos registro cada 15 minutos 37
Estación Fecha / Hora Temperatura Humedad Lluvia Velocidad Dirección Radiación Presion
37 Lluta Medio 02-09-2026 09:00 14,6 92,2 0 1,2 260 86,3 958
36 Lluta Medio 02-09-2026 08:45 14,5 92,9 0 0,5 263 70,4 958
35 Lluta Medio 02-09-2026 08:30 14,4 93,3 0 0,7 268 52,4 958
34 Lluta Medio 02-09-2026 08:15 14,4 93 0 0,9 260 37,1 958
33 Lluta Medio 02-09-2026 08:00 14,4 92,8 0 0,8 289 24,4 958
32 Lluta Medio 02-09-2026 07:45 14,6 91 0 1,2 335 15,1 958
31 Lluta Medio 02-09-2026 07:30 14,5 89,6 0 0,3 335 10,3 957
30 Lluta Medio 02-09-2026 07:15 14,6 90,5 0 1,3 313 4,5 957
29 Lluta Medio 02-09-2026 07:00 14,6 89,4 0 0,9 293 1,1 957
28 Lluta Medio 02-09-2026 06:45 14,6 89,6 0 1 293 0,3 957
27 Lluta Medio 02-09-2026 06:30 14,5 90,7 0 1,4 293 0,2 957
26 Lluta Medio 02-09-2026 06:15 14,5 90,9 0 0 288 0,2 956
25 Lluta Medio 02-09-2026 06:00 14,3 92,8 0 0 0 0,3 956
24 Lluta Medio 02-09-2026 05:45 14,2 94 0 0 0 0,4 956
23 Lluta Medio 02-09-2026 05:30 14,3 94,1 0 0 0 0,4 956
22 Lluta Medio 02-09-2026 05:15 14,3 94,3 0 0 0 0,4 956
21 Lluta Medio 02-09-2026 05:00 14,2 94,7 0 0 0 0,7 956
20 Lluta Medio 02-09-2026 04:45 14,2 95,5 0 0 0 0,8 956
19 Lluta Medio 02-09-2026 04:30 14,1 95,6 0 0 0 0,8 956
18 Lluta Medio 02-09-2026 04:15 14,1 95,5 0 0 0 0,5 956
17 Lluta Medio 02-09-2026 04:00 14,1 95,5 0 0 0 0,4 956
16 Lluta Medio 02-09-2026 03:45 14,1 95,5 0 0,2 252 0,4 956
15 Lluta Medio 02-09-2026 03:30 14,1 95,4 0 0,2 260 0,4 956
14 Lluta Medio 02-09-2026 03:15 14,1 95,4 0 0 256 0,4 956
13 Lluta Medio 02-09-2026 03:00 14,1 95,4 0 0,2 280 0,2 956
12 Lluta Medio 02-09-2026 02:45 14,1 95,4 0 0,2 278 0,3 956
11 Lluta Medio 02-09-2026 02:30 14,1 95,2 0 0,8 272 0,3 956
10 Lluta Medio 02-09-2026 02:15 14,1 94,9 0 1,3 280 0,3 957
9 Lluta Medio 02-09-2026 02:00 14,1 94,9 0 0,4 274 0,2 957
8 Lluta Medio 02-09-2026 01:45 14,2 93,8 0 0,2 266 0,2 957
7 Lluta Medio 02-09-2026 01:30 14,5 92,7 0 0,1 269 0,2 957
6 Lluta Medio 02-09-2026 01:15 14,6 91,3 0 0,1 304 0,2 957
5 Lluta Medio 02-09-2026 01:00 14,6 90,6 0 1,5 311 0,2 957
4 Lluta Medio 02-09-2026 00:45 14,5 90,9 0 1,6 332 0,2 958
3 Lluta Medio 02-09-2026 00:30 14,6 91,3 0 2,2 329 0,2 958
2 Lluta Medio 02-09-2026 00:15 14,6 90,3 0 2,2 325 0,2 958
1 Lluta Medio 02-09-2026 00:00 14,6 90,5 0 2 333 0,2 958